APSTAR 9

Last updated on May 21, 2019, 3:10 a.m. UTC

1 40982U 15059A   19140.48191516 -.00000275  00000-0  00000+0 0  9997
2 40982   0.0054  87.9609 0001525 335.1463 130.2204  1.00270841 13235
UTC
Height (km)
Latitude
Longitude
Inclination
Orbital Period
UTC large
Height (km)
Speed (km/s)
/
Latitude / Longitude
Inclination (degrees)
Orbital Period (minutes)
Azimuth
Elevation
Range (km)
Doppler Factor
iOS Compass Heading
iOS Angle

Next 30 passes for location: Hong Kong

Rise time Rise Azimuth (degrees) Set time Set Azimuth (degrees) Duration Max altitude (degrees)

No matching passes for this satellites